Location: Casilda
(33.0440°S, 61.1680°W)
Time: 16:07:35
(UTC-03:00)

ISS - Pass Details

Date: 17 April 2021
Orbit: 418 x 422 km, 51.6° (Epoch: 17 April)

Event Time Altitude Azimuth Distance (km) Brightness Sun altitude
Rises 19:14:24 0° 340° (NNW) 2,354 0.4 -8.0°
Reaches altitude 10° 19:16:42 10° 354° (N) 1,498 -0.8 -8.5°
Maximum altitude 19:19:31 25° 51° (NE) 902 -2.5 -9.1°
Enters shadow 19:21:45 14° 101° (E) 1,313 -1.9 -9.5°
